[[{"header":{"parameterUnit":"m.s-1","parameterCategory":1,"la1":30.2991,"la2":30.254,"lo1":-89.0895,"lo2":-89.0444,"dy":0.0017,"dx":0.0017,"nx":28,"ny":28,"refTime":"2024-09-03T03:00:00:Z","depth":0,"parameterNumber":2,"parameterNumberName":"U-component_of_WINDS"},"data":[0,0,0,0,0,0,0,0,0,0,0,0,0,0,0,0,0,0,0,0,0,0,0,0,0,0,0,0,0,0,0,0,0,0,0,0,0,0,0,0,0,0,0,0,0,0,0,0,0,0,0,0,0,0,0,0,0,0,-7.9446,-7.9448,0,-7.9608,-7.961,-7.9611,-7.9547,-7.9543,-7.9539,-7.9536,-7.9692,-7.9699,-7.9707,0,0,0,0,0,0,0,0,0,0,0,0,0,-7.9074,-7.9081,-7.9446,-7.9448,-7.945,-7.9608,-7.961,-7.9612,-7.9548,-7.9543,-7.9538,-7.9534,-7.9689,-7.9698,-7.9708,0,0,0,0,0,0,0,0,0,0,0,0,0,-7.9235,-7.9083,-7.9446,-7.9437,-7.9438,-7.9607,-7.961,-7.9612,-7.9549,-7.9543,-7.9537,-7.9532,-7.9686,-7.9698,-7.9709,-7.9893,0,0,-7.9744,-7.9749,0,0,0,0,0,0,0,0,-7.9226,-7.9249,-7.9436,-7.9438,-7.9439,-7.9552,-7.9536,-7.9706,-7.955,-7.9506,-7.9536,-7.9529,-7.9649,-7.9663,-7.9706,-7.99,-7.9907,-7.9745,-7.9752,-7.9757,-7.976,0,0,0,0,0,0,0,-7.9215,-7.9241,-7.951,-7.9439,-7.9441,-7.9423,-7.9439,-7.9568,-7.9607,-7.951,-7.9505,-7.9526,-7.9649,-7.9695,-7.9709,-7.9909,-7.9745,-7.9755,-7.9762,-7.9767,-8.0262,-8.0267,0,0,0,0,0,0,-7.9205,-7.9233,-7.9504,-7.9514,-7.9317,-7.9434,-7.9453,-7.9521,-7.9606,-7.9613,-7.9531,-7.9522,-7.9678,-7.9696,-7.9714,-7.9934,-7.9757,-7.9768,-7.9774,-8.0255,-8.0263,-8.027,0,0,0,0,0,0,-7.9197,-7.923,-7.9498,-7.9373,-7.9406,-7.9447,-7.9524,-7.9527,-7.9573,-7.9622,-7.9627,-7.9571,-7.9674,-7.9698,-7.9849,-7.9938,-7.9773,-7.9783,-8.0248,-8.0258,-8.0266,-8.0375,0,0,0,0,0,0,-7.9186,-7.9227,-7.9299,-7.9375,-7.9413,-7.9633,-7.9529,-7.9535,-7.9594,-7.9585,-7.9661,-7.9668,-7.9672,-7.9833,-7.9861,-7.9951,-7.9792,-8.024,-8.0252,-8.0263,-8.0363,-8.0387,-8.0407,0,0,0,0,0,-7.9173,-7.9321,-7.9303,-7.9336,-7.9504,-7.9638,-7.9659,-7.9663,-7.9602,-7.9673,-7.9704,-7.9665,-7.9925,-7.9849,-7.988,-7.9975,-8.0234,-8.0249,-8.0262,-8.0354,-8.0382,-8.0406,0,0,0,0,0,0,-7.925,-7.9331,-7.9311,-7.9489,-7.9558,-7.9627,-7.9717,-7.9694,-7.9779,-7.9766,-7.9765,-7.9782,-7.9938,-7.9972,-7.9886,-8.0157,-8.007,-8.0091,-8.0129,-8.0156,-8.0177,-8.0164,-7.9802,0,0,0,0,0,-7.9289,-7.9395,-7.9458,-7.9608,-7.9644,-7.9676,-7.9734,-7.9732,-7.9802,-7.9829,-7.9871,-7.9938,-8.0035,-8.0098,-8.0189,-8.037,-8.0384,-8.045,-8.0472,-8.049,-8.0506,-8.0602,-8.0632,-8.0316,-8.0316,-8.0315,0,0,-7.9368,-7.9425,-7.9491,-7.9625,-7.9678,-7.9785,-7.97,-7.9816,-7.9894,-7.9846,-7.9991,-8.0026,-8.01,-8.0266,-8.0342,-8.0299,-8.0598,-8.0508,-8.0521,-8.0528,-8.062,-8.065,-8.0676,-8.0325,-8.0324,-8.0322,0,0,-7.9565,-7.9621,-7.9751,-7.9808,-7.989,-7.9911,-7.9942,-8.0017,-8.0038,-8.0186,-8.0152,-8.0244,-8.041,-8.0465,-8.0514,-8.0736,-8.0702,-8.0766,-8.0877,-8.0971,-8.0996,-8.1018,-8.1094,-8.1122,-8.0783,-8.0783,-8.0784,0,-7.9651,-7.9813,-7.982,-7.9941,-8.0,-7.9966,-8.0097,-8.015,-8.0257,-8.0297,-8.025,-8.0459,-8.0507,-8.0685,-8.0739,-8.0782,-8.0815,-8.0755,-8.0992,-8.1014,-8.1035,-8.1107,-8.1137,-8.079,-8.079,-8.0789,-8.0788,0,-7.9914,-8.0027,-8.0122,-8.0231,-8.0301,-8.0426,-8.045,-8.052,-8.0513,-8.0537,-8.0687,-8.0744,-8.0846,-8.0889,-8.0882,-8.1067,-8.1037,-8.0992,-8.0903,-8.1072,-8.114,-8.1168,-8.08,-8.0798,-8.0796,-8.0794,0,0,-8.0159,-8.0274,-8.0308,-8.0357,-8.0448,-8.0534,-8.0657,-8.076,-8.0819,-8.0896,-8.0996,-8.114,-8.1099,-8.1155,-8.1154,-8.1237,-8.1406,-8.118,-8.1182,-8.1218,-8.161,-8.1641,-8.1674,-8.1387,-8.1392,-8.1396,-8.1603,0,-8.0362,-8.058,-8.0592,-8.0789,-8.0892,-8.0863,-8.097,-8.1036,-8.1063,-8.1153,-8.1181,-8.1282,-8.1222,-8.1255,-8.1337,-8.1368,-8.1484,-8.1354,-8.1476,-8.1481,-8.1455,-8.171,-8.1743,-8.1935,-8.163,-8.1634,-8.1638,0,-8.0625,-8.0714,-8.0922,-8.0999,-8.1043,-8.1139,-8.1235,-8.1322,-8.1396,-8.141,-8.1475,-8.1462,-8.1585,-8.1497,-8.1665,-8.1577,-8.1628,-8.1652,-8.1659,-8.1667,-8.1566,-8.1721,-8.1997,-8.2024,-8.168,-8.1677,-8.1674,0,-8.078,-8.0951,-8.1098,-8.1141,-8.1235,-8.1303,-8.1345,-8.1414,-8.1475,-8.1559,-8.1598,-8.1694,-8.1746,-8.1819,-8.1832,-8.1767,-8.2,-8.1913,-8.2012,-8.2011,-8.2058,-8.2054,-8.2342,-8.2098,-8.2098,-8.2097,-8.2097,0,-8.1002,-8.113,-8.1169,-8.1258,-8.14,-8.1413,-8.1552,-8.1588,-8.1651,-8.1745,-8.1726,-8.1814,-8.1828,-8.1919,-8.193,-8.2066,-8.2091,-8.2103,-8.2103,-8.2102,-8.21,-8.2132,-8.2118,-8.2105,-8.2103,-8.2102,-8.21,0,-8.1197,-8.1228,-8.1386,-8.1464,-8.1487,-8.1588,-8.1653,-8.1738,-8.1765,-8.1884,-8.1913,-8.1954,-8.206,-8.2082,-8.2207,-8.2214,-8.2376,-8.2365,-8.2351,-8.2349,-8.2445,-8.2435,-8.276,-8.2803,-8.2535,-8.2537,-8.254,0,-8.1334,-8.1432,-8.1522,-8.1586,-8.1632,-8.1735,-8.1799,-8.1815,-8.1882,-8.1975,-8.2048,-8.2153,-8.2238,-8.2409,-8.2447,-8.2543,-8.2532,-8.264,-8.2546,-8.2542,-8.253,-8.2522,-8.2531,-8.2656,-8.2659,-8.2661,-8.2663,0,-8.1574,-8.1586,-8.168,-8.1782,-8.186,-8.1939,-8.2015,-8.2067,-8.2093,-8.2169,-8.228,-8.2346,-8.2476,-8.2579,-8.2676,-8.2715,-8.2693,-8.2694,-8.2721,-8.2719,-8.2706,-8.2711,-8.2396,-8.2685,-8.2683,-8.2681,-8.268,-8.2679,-8.1742,-8.1828,-8.1905,-8.2011,-8.2071,-8.2143,-8.2227,-8.2266,-8.2359,-8.2468,-8.2472,-8.2592,-8.2663,-8.2791,-8.2837,-8.2929,-8.2895,-8.2935,-8.2944,-8.2953,-8.2961,-8.2695,-8.2947,-8.2946,-8.2946,-8.2945,-8.2945,0,-8.1978,-8.2027,-8.2126,-8.2234,-8.2317,-8.2295,-8.2378,-8.2447,-8.2555,-8.2625,-8.271,-8.2837,-8.2938,-8.2987,-8.3086,-8.315,-8.3142,-8.3175,-8.3168,-8.3177,-8.2987,-8.2952,-8.318,-8.318,-8.318,-8.318,-8.318,-8.318,-8.211,-8.2254,-8.2275,-8.2448,-8.2496,-8.2616,-8.2665,-8.273,-8.2786,-8.293,-8.3015,-8.3048,-8.3109,-8.3213,-8.3304,-8.3316,-8.3351,-8.3389,-8.3395,-8.3215,-8.3191,-8.3168,-8.3135,-8.3397,-8.3398,-8.3577,-8.3579,-8.358]},{"header":{"parameterUnit":"m.s-1","parameterCategory":1,"la1":30.2991,"la2":30.254,"lo1":-89.0895,"lo2":-89.0444,"dy":0.0017,"dx":0.0017,"nx":28,"ny":28,"refTime":"2024-09-03T03:00:00:Z","depth":0,"parameterNumber":3,"parameterNumberName":"V-component_of_WINDS"},"data":[0,0,0,0,0,0,0,0,0,0,0,0,0,0,0,0,0,0,0,0,0,0,0,0,0,0,0,0,0,0,0,0,0,0,0,0,0,0,0,0,0,0,0,0,0,0,0,0,0,0,0,0,0,0,0,0,0,0,3.3668,3.3668,0,3.3658,3.3657,3.3657,3.3601,3.36,3.3598,3.3597,3.3587,3.3588,3.3589,0,0,0,0,0,0,0,0,0,0,0,0,0,3.364,3.3641,3.3668,3.3668,3.3668,3.3658,3.3657,3.3657,3.3601,3.36,3.3598,3.3596,3.3586,3.3587,3.3589,0,0,0,0,0,0,0,0,0,0,0,0,0,3.3643,3.3641,3.3668,3.3638,3.3636,3.3658,3.3657,3.3657,3.3602,3.3599,3.3597,3.3596,3.3586,3.3587,3.3589,3.3638,0,0,3.3593,3.3594,0,0,0,0,0,0,0,0,3.3643,3.3644,3.3643,3.3641,3.3637,3.3628,3.3644,3.3651,3.3602,3.3615,3.3597,3.3595,3.3602,3.3602,3.3605,3.3638,3.3637,3.3593,3.3594,3.3595,3.3595,0,0,0,0,0,0,0,3.3643,3.3644,3.3664,3.3643,3.364,3.3626,3.3624,3.3645,3.362,3.3613,3.3609,3.3609,3.36,3.3603,3.3604,3.3637,3.3593,3.3595,3.3596,3.3596,3.3711,3.3713,0,0,0,0,0,0,3.3647,3.3645,3.3664,3.3663,3.3635,3.3628,3.3626,3.3633,3.3619,3.3615,3.361,3.3606,3.3602,3.3602,3.3603,3.366,3.3595,3.3596,3.3597,3.3709,3.3712,3.3714,0,0,0,0,0,0,3.3646,3.3649,3.3665,3.3653,3.3654,3.3631,3.3639,3.3634,3.3637,3.3617,3.3613,3.3618,3.36,3.3601,3.363,3.3659,3.3597,3.3598,3.3707,3.371,3.3713,3.3775,0,0,0,0,0,0,3.3646,3.3649,3.3667,3.3654,3.3655,3.3691,3.3641,3.3636,3.364,3.3634,3.3623,3.362,3.3599,3.3628,3.3632,3.366,3.3599,3.3704,3.3708,3.3712,3.377,3.378,3.3789,0,0,0,0,0,3.3645,3.3685,3.3669,3.3671,3.3677,3.3693,3.3694,3.3669,3.3643,3.3661,3.3648,3.362,3.3656,3.3632,3.3635,3.3665,3.3702,3.3707,3.3712,3.3766,3.3778,3.3788,0,0,0,0,0,0,3.3703,3.3683,3.3664,3.3701,3.3699,3.3684,3.3706,3.3682,3.3688,3.3682,3.3651,3.3649,3.3683,3.3677,3.365,3.3712,3.3674,3.368,3.3715,3.3726,3.3735,3.3735,3.3601,0,0,0,0,0,3.372,3.3734,3.3716,3.3751,3.3751,3.3729,3.3735,3.3716,3.3713,3.3712,3.3701,3.3699,3.371,3.3718,3.3727,3.377,3.3767,3.3792,3.3801,3.3809,3.3814,3.3836,3.3847,3.373,3.373,3.373,0,0,3.3755,3.3746,3.3757,3.3762,3.3758,3.3774,3.3728,3.3747,3.3759,3.3714,3.3741,3.3734,3.3729,3.3766,3.3781,3.3762,3.3845,3.3815,3.3821,3.3822,3.3842,3.3853,3.3863,3.3734,3.3733,3.3732,0,0,3.3827,3.3822,3.385,3.3848,3.3843,3.3828,3.3835,3.3823,3.3817,3.3843,3.381,3.3824,3.3844,3.3842,3.3844,3.3918,3.3892,3.3921,3.3968,3.3991,3.4,3.4008,3.4034,3.4043,3.3927,3.3927,3.3927,0,3.3871,3.3894,3.3868,3.3889,3.3892,3.3854,3.3882,3.3881,3.388,3.3883,3.3861,3.3885,3.388,3.3916,3.3934,3.3937,3.3944,3.3922,3.4001,3.4008,3.4016,3.404,3.405,3.3931,3.393,3.393,3.3929,0,3.3948,3.3965,3.3988,3.3988,3.3994,3.4019,3.3997,3.4007,3.3988,3.3976,3.4004,3.3996,3.4003,3.401,3.3992,3.4044,3.4032,3.4006,3.3967,3.4031,3.4053,3.4062,3.3936,3.3934,3.3933,3.3932,0,0,3.4054,3.4041,3.405,3.4049,3.4042,3.4054,3.4078,3.4085,3.4094,3.4095,3.4114,3.4132,3.4108,3.4111,3.4092,3.4112,3.4171,3.4084,3.4083,3.41,3.4227,3.4245,3.4257,3.4154,3.4156,3.4157,3.4227,0,3.4123,3.4162,3.414,3.4182,3.4197,3.4162,3.4182,3.4181,3.417,3.4182,3.4171,3.4184,3.4152,3.4153,3.4171,3.416,3.4196,3.4155,3.4171,3.4172,3.4172,3.4268,3.4288,3.4354,3.4236,3.4237,3.4238,0,3.4207,3.4212,3.4256,3.4247,3.4252,3.4271,3.4276,3.4288,3.4285,3.4277,3.428,3.4257,3.428,3.4243,3.4274,3.4247,3.4253,3.4248,3.425,3.425,3.4208,3.427,3.4374,3.4384,3.4252,3.4251,3.425,0,3.428,3.4297,3.4326,3.4327,3.4317,3.4331,3.4328,3.4323,3.4329,3.4334,3.4338,3.4346,3.4349,3.4356,3.4336,3.4311,3.437,3.4331,3.4363,3.4364,3.4376,3.4375,3.4482,3.4382,3.4382,3.4381,3.4381,0,3.4358,3.4386,3.4358,3.4376,3.4407,3.4382,3.4413,3.4406,3.4403,3.4418,3.4389,3.4404,3.4378,3.439,3.4375,3.4403,3.4406,3.4399,3.4394,3.4401,3.4402,3.4403,3.4398,3.4384,3.4383,3.4383,3.4383,0,3.4443,3.4426,3.4454,3.4443,3.4441,3.4464,3.4455,3.4471,3.4459,3.448,3.4483,3.4465,3.4479,3.446,3.4472,3.4462,3.45,3.4489,3.4501,3.4497,3.453,3.4527,3.4641,3.4654,3.4547,3.4548,3.4549,0,3.4493,3.4514,3.4505,3.4514,3.4512,3.4526,3.4533,3.451,3.4517,3.4517,3.4533,3.4545,3.4552,3.4576,3.4564,3.4573,3.4562,3.4601,3.4563,3.4569,3.4561,3.456,3.4562,3.4608,3.461,3.4611,3.4612,0,3.4584,3.4575,3.4584,3.4592,3.4601,3.4605,3.4608,3.4617,3.4593,3.4603,3.4617,3.4623,3.4636,3.4648,3.4654,3.4651,3.4627,3.4624,3.4632,3.4638,3.4643,3.464,3.4521,3.4621,3.462,3.4619,3.4619,3.4619,3.4652,3.4669,3.4666,3.4679,3.4678,3.4682,3.4696,3.4687,3.4699,3.4707,3.4693,3.4711,3.4709,3.4715,3.4715,3.4728,3.4711,3.4722,3.4725,3.4728,3.4733,3.4643,3.4729,3.4729,3.4729,3.4729,3.4728,0,3.474,3.4737,3.4749,3.4754,3.4764,3.4743,3.4745,3.4754,3.477,3.4771,3.4779,3.4796,3.4807,3.4797,3.4807,3.482,3.4809,3.4823,3.4821,3.4821,3.4748,3.474,3.4831,3.4831,3.4831,3.4831,3.4831,3.4831,3.4788,3.4815,3.4806,3.4834,3.4831,3.4848,3.4851,3.4854,3.4854,3.4874,3.4884,3.4877,3.4873,3.4883,3.4893,3.4889,3.4894,3.4911,3.4904,3.4836,3.4826,3.4816,3.4808,3.4913,3.4913,3.4976,3.4976,3.4977]}]]